Regional Weather Roundup
Issued by NWS

Home | Current Version | Previous Version | Graphics & Text | Print | Product List | Glossary On
Versions: 1 2 3 4 5 6 7 8 9 10 11 12 13 14 15 16 17 18 19 20 21 22 23 24 25 26 27 28 29 30 31 32 33 34 35 36 37 38 39 40 41 42 43 44 45 46 47 48 49 50
000
ASUS43 KBIS 251702
RWRND

NORTH DAKOTA REGIONAL WEATHER ROUNDUP
NATIONAL WEATHER SERVICE BISMARCK ND
1200 PM CDT SUN SEP 25 2016

NOTE: "FAIR" INDICATES FEW OR NO CLOUDS BELOW 12,000 FEET WITH NO
SIGNIFICANT WEATHER AND/OR OBSTRUCTIONS TO VISIBILITY.


NDZ001>003-009>011-017-251800-
NORTHWEST NORTH DAKOTA

CITY           SKY/WX    TMP DP  RH WIND       PRES   REMARKS
WILLISTON      SUNNY     58  39  49 NW25G31   30.19R
MINOT          SUNNY     58  42  55 W26G38    30.03R
MINOT AFB      SUNNY     58  41  53 NW35G45   30.01R
$$

NDZ018>021-031>035-040>046-251800-
SOUTHWEST NORTH DAKOTA

CITY           SKY/WX    TMP DP  RH WIND       PRES   REMARKS
BISMARCK       MOSUNNY   59  38  45 NW29G43   30.09R
DICKINSON      SUNNY     54  36  50 NW28G36   30.20R
GARRISON         N/A     58  40  51 NW32G43   30.07R
HETTINGER ARPT SUNNY     56  37  49 NW29G36   30.25R
$$

NDZ004>008-012>016-024-026-027-054-251800-
NORTHEAST NORTH DAKOTA

CITY           SKY/WX    TMP DP  RH WIND       PRES   REMARKS
GRAND FORKS    LGT RAIN  55  52  89 NW17G33   29.75R
GRND FRKS AFB  DRIZZLE   55  54  94 NW23G32   29.76S
DEVILS LAKE    CLOUDY    53  48  83 NW31G39   29.87R
$$

NDZ022-023-025-028>030-036>039-047>053-251800-
SOUTHEAST NORTH DAKOTA

CITY           SKY/WX    TMP DP  RH WIND       PRES   REMARKS
FARGO          CLOUDY    59  51  75 W23G31    29.81R
JAMESTOWN      CLOUDY    56  47  71 NW30G43   29.92R
$$




USA.gov is the U.S. government's official web portal to all federal, state and local government web resources and services.